map of GEO home
GEO - Airport
Location
City:  Georgetown, Demerara-Mahaica, Guyana
Name:Cheddi Jagan International Airport
Old (Alt.):Timehri International Airport
ICAO:SYCJ
IATA:GEO

Details
Type:Airport (Aerodrome, Airfield)
Use:Public/Civil, International (customs port of entry)
Latitude:629'55"N (6.498553)
Longitude:5815'15"W (-58.254118)
Datum:WGS 1984
Elevation:95 ft (29 m)
Variation:16.34W (WMM2015 magnetic declination)
-0.06 annual change
Runways:2
Longest:7448 × 148 ft (2270 × 45 m), paved

Time
Time Zone:UTC-4
Local Time:

Weather
METAR:SYCJ 231600Z 09004KT 9999 BKN016 SCT100 28/25 Q1013 JP-W RESH NOSIG
TAF:SYCJ 230503Z 2306/2406 VRB06KT 5000 SHRA BKN016 BKN037 BKN090
BECMG 2318/2320 06010KT 9999 BKN018 SCT036 BKN100

Related Locations
Nearby:
Farthest:WAWH: 12356 mi / 19884 km
H. Aroeppala Selayar [H. Aroeppala Selayar Airport], SN, ID

Find:

   beyond  
but within

Other Information
Maps:
NOTAMs:
Links:
Sources:

  
flag of Guyana   

Sectional Chart

Flight Planning
at skyvector.com

Satellite Image

Google Maps Satellite view

 

Copyright © 2004-2017 Karl L. Swartz. All rights reserved.
The Great Circle Mapper name and logo are trademarks of the Great Circle Mapper.
All other trademarks mentioned herein belong to their respective owners.
Please see credits for attibutions and further copyright information.

  Follow gcmap on Facebook Follow gcmap on Twitter Follow gcmap on Google+ GCmap on LinkedIn

hCard Microformat

Geo Microformat